Barksdale AFB, LA

5:26 PM CDT on April 28, 2017 (GMT -0500)
Barksdale Air Force Base

Weather History for KBAD - October, 2013

Change the Weather History Date:

Wednesday, October 9, 2013

  Actual Average Record
Temperature  
Mean Temperature 64 °F -  
Max Temperature 79 °F 74 °F 93 °F (2015)
Min Temperature 51 °F 54 °F 37 °F (2000)
Growing Degree Days 14 (Base 50)    
Moisture  
Dew Point 54 °F    
Average Humidity 75    
Maximum Humidity 97    
Minimum Humidity 40    
Precipitation  
Precipitation 0.00 in - - ()
Sea Level Pressure  
Sea Level Pressure 30.07 in    
Wind  
Wind Speed 1 mph (ENE)    
Max Wind Speed 6 mph    
Max Gust Speed -    
Visibility 10 miles    
Events      
Averages and records for this station are not official NWS values.
T = Trace of Precipitation, MM = Missing Value Source: NWS Daily Summary

Daily Weather History Graph

Daily Weather History Graph

Search for Another Location

Airport or City:

Trip Planner

Search our weather history database for the weather conditions in past years. The results will help you decide how hot, cold, wet, or windy it might be!

Date:

Astronomy

Oct. 09, 2013 Rise Set
Actual Time 7:14 AM CDT 6:48 PM CDT
Civil Twilight 6:49 AM CDT 7:13 PM CDT
Nautical Twilight 6:21 AM CDT 7:41 PM CDT
Astronomical Twilight 5:52 AM CDT 8:10 PM CDT
Moon 11:57 AM CDT (10/9) 10:36 PM CDT (10/9)
Length of Visible Light 12h 23m
Length of Day
11h 34m
Waxing Crescent, 25% of the Moon is Illuminated
Oct 9
Waxing Crescent
Oct 11
First Quarter
Oct 18
Full
Oct 26
Last Quarter
Nov 3
New

Hourly Weather History & Observations

Time (CDT) Temp. Dew Point Humidity Pressure Visibility Wind Dir Wind Speed Gust Speed Precip Events Conditions
12:58 AM 54.9 °F 53.8 °F 96% 30.06 in 10.0 mi Calm Calm - N/A   Clear
1:08 AM 55.4 °F 53.6 °F 94% 30.05 in 9.0 mi Calm Calm - N/A   Clear
1:18 AM 55.4 °F 53.6 °F 94% 30.05 in 10.0 mi Calm Calm - N/A   Clear
1:58 AM 55.8 °F 53.8 °F 93% 30.06 in 10.0 mi Calm Calm - N/A   Clear
2:58 AM 55.2 °F 53.6 °F 94% 30.06 in 10.0 mi North 1.2 mph - N/A   Clear
3:58 AM 54.3 °F 53.4 °F 97% 30.05 in 10.0 mi Calm Calm - N/A   Clear
4:58 AM 53.1 °F 52.2 °F 97% 30.06 in 10.0 mi Calm Calm - N/A   Clear
5:58 AM 51.1 °F 49.6 °F 95% 30.07 in 10.0 mi Calm Calm - N/A   Clear
6:58 AM 51.1 °F 50.0 °F 96% 30.08 in 10.0 mi Calm Calm - N/A   Clear
7:58 AM 52.5 °F 51.3 °F 95% 30.10 in 10.0 mi Calm Calm - N/A   Clear
8:58 AM 59.5 °F 54.5 °F 83% 30.11 in 10.0 mi NNE 1.2 mph - N/A   Clear
9:58 AM 65.1 °F 54.3 °F 68% 30.13 in 10.0 mi SSE 2.3 mph - N/A   Clear
10:58 AM 70.0 °F 52.9 °F 55% 30.14 in 10.0 mi Variable 1.2 mph - N/A   Clear
11:58 AM 72.7 °F 51.4 °F 47% 30.13 in 10.0 mi Variable 2.3 mph - N/A   Clear
12:58 PM 74.8 °F 52.3 °F 45% 30.11 in 10.0 mi Variable 2.3 mph - N/A   Clear
1:58 PM 76.5 °F 52.9 °F 44% 30.08 in 10.0 mi Variable 1.2 mph - N/A   Clear
2:58 PM 77.5 °F 53.2 °F 43% 30.06 in 10.0 mi Variable 1.2 mph - N/A   Clear
3:58 PM 78.3 °F 53.8 °F 43% 30.06 in 10.0 mi NNE 4.6 mph - N/A   Clear
4:58 PM 78.4 °F 52.5 °F 40% 30.05 in 10.0 mi ENE 3.5 mph - N/A   Clear
5:58 PM 75.9 °F 53.6 °F 46% 30.04 in 10.0 mi SE 5.8 mph - N/A   Clear
6:58 PM 70.2 °F 55.6 °F 60% 30.04 in 10.0 mi East 2.3 mph - N/A   Clear
7:58 PM 64.9 °F 56.8 °F 75% 30.05 in 10.0 mi East 3.5 mph - N/A   Clear
8:58 PM 60.8 °F 55.9 °F 84% 30.06 in 10.0 mi Calm Calm - N/A   Clear
9:58 PM 61.0 °F 57.2 °F 87% 30.07 in 10.0 mi Calm Calm - N/A   Clear
10:58 PM 60.1 °F 56.8 °F 89% 30.08 in 10.0 mi Calm Calm - N/A   Clear
11:58 PM 57.9 °F 55.8 °F 92% 30.07 in 10.0 mi Calm Calm - N/A   Clear